Regional Weather Roundup
Issued by NWS

Home | Current Version | Previous Version | Text Only | Print | Product List | Glossary On
Versions: 1 2 3 4 5 6 7 8 9 10 11 12 13 14 15 16 17 18 19 20 21 22 23 24 25 26 27 28 29 30 31 32 33 34 35 36 37 38 39 40 41 42 43 44 45 46 47 48 49 50
000
ASUS43 KMKX 262321
RWRWI

WISCONSIN REGIONAL WEATHER ROUNDUP
NATIONAL WEATHER SERVICE MILWAUKEE/SULLIVAN WI
500 PM CST FRI DEC 26 2014

NOTE: "FAIR" INDICATES FEW OR NO CLOUDS BELOW 12,000 FEET WITH NO
SIGNIFICANT WEATHER AND/OR OBSTRUCTIONS TO VISIBILITY.

WIZ001-002-006>008-014>016-023>028-270000-
NORTHWEST WISCONSIN

CITY           SKY/WX    TMP DP  RH WIND       PRES   REMARKS
SUPERIOR ARPT  CLOUDY    31  23  72 N6        30.11R WCI  25
ASHLAND        CLOUDY    30  27  88 CALM      30.09R
HAYWARD        FLURRIES  30  26  85 N6        30.05R WCI  24
SIREN          CLOUDY    30  26  85 N5        30.07R WCI  25
CUMBERLAND     CLOUDY    30  28  93 N7        30.03R WCI  23
RICE LAKE      CLOUDY    32  28  84 N9        30.05R WCI  24
CHETEK         CLOUDY    32  28  85 N5        30.03R WCI  27
LADYSMITH      CLOUDY    32  29  90 N8        30.04R WCI  25
EAU CLAIRE     CLOUDY    33  28  81 N6        30.02R WCI  28
MENOMONIE      CLOUDY    33  29  85 N8        30.03R WCI  26
NEW RICHMOND   CLOUDY    31  29  90 N9        30.04S WCI  23
OSCEOLA        CLOUDY    31  30  95 N7        30.09R WCI  24
$$

WIZ003>005-009-010-017-018-270000-
NORTH CENTRAL WISCONSIN

CITY           SKY/WX    TMP DP  RH WIND       PRES   REMARKS
MANITOWISH WTR FLURRIES  30  30 100 N3        30.01R
ARBOR VITAE    CLOUDY    32  30  92 CALM      30.00R
WOODRUFF       CLOUDY    32  30  92 CALM      30.00R
RHINELANDER    CLOUDY    30  28  92 NE5       30.00R WCI  25
EAGLE RIVER    CLOUDY    30  30  99 CALM      29.99R
LAND O LAKES   CLOUDY    31  30  96 CALM      30.01R
PHILLIPS       CLOUDY    30  28  93 N6        30.00R WCI  24
TOMAHAWK       CLOUDY    31  28  90 CALM      30.00R
MEDFORD        CLOUDY    32  30  93 NE6       29.98R WCI  26
MERRILL        CLOUDY    33  32  98 CALM      29.99R FOG
$$

WIZ029-030-035-036-043>047-270000-
CENTRAL WISCONSIN

CITY           SKY/WX    TMP DP  RH WIND       PRES   REMARKS
WAUSAU         CLOUDY    34  31  88 CALM      29.98R
MOSINEE        CLOUDY    34  34 100 E3        29.99R
MARSHFIELD     CLOUDY    34  30  85 NE10      29.98R WCI  26
STEVENS POINT  CLOUDY    31  31  99 NE5       29.99S FOG     WCI  26
WAUPACA        CLOUDY    34  33  96 N5        30.00R FOG     WCI  30
WAUTOMA        CLOUDY    38  35  89 NE5       29.99R WCI  34
WISC RAPIDS    CLOUDY    35  30  82 NE6       29.99R WCI  30
CAMP DOUGLAS   CLOUDY    36  36 100 CALM      29.97R
$$

WIZ011>013-019>022-031-037>040-048>050-270000-
NORTHEAST WISCONSIN

CITY           SKY/WX    TMP DP  RH WIND       PRES   REMARKS
ANTIGO         CLOUDY    32  32 100 NE6       29.98R FOG     WCI  26
SHAWANO        FOG       34  33  96 CALM      30.02S VSB 1
OCONTO         CLOUDY    34  34 100 CALM      30.02R
STURGEON BAY   CLOUDY    36  32  87 CALM      30.04R
GREEN BAY      CLOUDY    36  34  92 N7        30.01R WCI  30
MANITOWOC      MOCLDY    37  37 100 CALM      30.01R
APPLETON       CLOUDY    34  34 100 N7        29.99R FOG     WCI  28
CLINTONVILLE   CLOUDY    32  32 100 N5        30.01R FOG     WCI  27
OSHKOSH        CLOUDY    40  34  79 CALM      29.99R
$$

WIZ032>034-041-042-053>061-270000-
SOUTHWEST WISCONSIN

CITY           SKY/WX    TMP DP  RH WIND       PRES   REMARKS
LA CROSSE      CLOUDY    37  32  82 NW9       29.99R WCI  30
SPARTA         CLOUDY    38  32  78 N7        29.98S WCI  33
VIROQUA        MOCLDY    37  35  93 CALM      29.95S
BOSCOBEL       CLOUDY    41  33  73 CALM      29.97R HAZE
PRAIRIE DU CHI CLOUDY    40  32  74 CALM      29.96S
PLATTEVILLE    MOCLDY    41  36  80 CALM      29.97R
$$

WIZ056-057-062-063-064-067-068-270000-
SOUTH CENTRAL WISCONSIN

CITY           SKY/WX    TMP DP  RH WIND       PRES   REMARKS
REEDSBURG      MOCLDY    40  34  76 CALM      29.96R
BARABOO/DELLS  MOCLDY    39  32  77 CALM      29.96R
LONE ROCK      MOCLDY    42  32  67 CALM      29.97R
MINERAL POINT  MOCLDY    43  34  70 CALM      29.96R
MADISON        MOCLDY    42  34  73 S3        29.96R
MIDDLETON      MOCLDY    43  35  71 CALM      29.97R
WATERTOWN      PTCLDY    37  35  92 CALM      29.98R
MONROE         CLOUDY    43  36  75 SW3       29.96S
JANESVILLE     PTCLDY    45  36  70 CALM      29.97S
$$

WIZ051-052-058>065-066-070>072-270000-
SOUTHEAST WISCONSIN

CITY           SKY/WX    TMP DP  RH WIND       PRES   REMARKS
MILWAUKEE      MOCLDY    43  34  70 CALM      30.00R
WAUKESHA       PTCLDY    43  34  70 SW12      29.99R
MILWAUKEE/TIMM PTCLDY    43  34  70 S5        30.00R
RACINE         MOCLDY    42  35  76 SE3       30.01R
BURLINGTON     PTCLDY    38  34  85 CALM      29.99S
KENOSHA        CLOUDY    44  37  76 CALM      29.99R
FOND DU LAC    PTCLDY    40  34  79 MISG      29.98R
SHEBOYGAN      MOCLDY    38  34  85 S5        29.99R WCI  34
WEST BEND      MOCLDY    37  32  81 CALM      29.99R
JUNEAU         PTCLDY    39  35  85 SE6       29.98R WCI  34
$$

LSZ147-162-270000-
LAKE SUPERIOR

STATION/POSITION TIME  TEMP    WIND        PRES    WAVE
                       AIR SEA DIR/SP/G            HT/PER
                 (UTC) (F)     (DEG/KT/KT) (MB)    (FT/S)
DEVILS ISLAND    2300   33     340/  8/ 10 1019.3R
PORT WING        2200   32     360/  5/  6 1018.3S
SAXON HARBOR     2200   33     360/  8/  9 1017.9
$$

LMZ867-665-643>646-270000-
LAKE MICHIGAN

STATION/POSITION TIME  TEMP    WIND        PRES    WAVE
                       AIR SEA DIR/SP/G            HT/PER
                 (UTC) (F)     (DEG/KT/KT) (MB)    (FT/S)
CHAMBERS ISLAND  2200   35      10/  9/ 11 1015.9S
NORTHPORT PIER   2200   35     360/  3/  8 1015.9R
SISTER BAY       2243           30/  6/  8   N/A
ALGOMA LAKESHORE 2215          340/  9/ 12   N/A
KEWAUNEE LAKESHO 2200   38     160/  3/  6 1014.4R
SHEBOYGAN LAKESH 2300   43 39  180/  5/  5 1016.4R
PORT WASHINGTON  2200   46     230/  2/  3 1016.3R
MILWAUKEE LAKESH 2300   46     210/  2/  3   N/A
KENOSHA   LAKESH 2300   40     170/  7/  8 1015.9R
$$

TC  - TEMPERATURE IN CELSIUS
VSB - VISIBILITY IN STATUTE MILES
WCI - WIND CHILL INDEX
HX  - HEAT INDEX



USA.gov is the U.S. government's official web portal to all federal, state and local government web resources and services.